Regional Weather Roundup
Issued by NWS

Home | Current Version | Previous Version | Graphics & Text | Print | Product List | Glossary On
Versions: 1 2 3 4 5 6 7 8 9 10 11 12 13 14 15 16 17 18 19 20 21 22 23 24 25 26 27 28 29 30 31 32 33 34 35 36 37 38 39 40 41 42 43 44 45 46 47 48 49 50
143
ASUS45 KBOI 201210
RWRID

IDAHO REGIONAL WEATHER ROUNDUP
NATIONAL WEATHER SERVICE BOISE ID
500 AM MST SAT JAN 20 2018

NOTE: "FAIR" INDICATES FEW OR NO CLOUDS BELOW 12000 FEET
WITH NO SIGNIFICANT WEATHER AND/OR OBSTRUCTIONS TO VISIBILITY

IDZ012-014-201300-
SOUTHWEST IDAHO


CITY           SKY/WX    TMP DP  RH WIND       PRES   REMARKS
BOISE          CLOUDY    31  25  78 S6        30.03R WCI  25
CALDWELL         N/A     28  26  92 E3        30.05S
MOUNTAIN HOME  PTCLDY    26  26 100 NW6       30.01F WCI  20
$$

IDZ016-017-201300-
SOUTHCENTRAL IDAHO


CITY           SKY/WX    TMP DP  RH WIND       PRES   REMARKS
BURLEY         MOCLDY    30  22  72 W10       29.95R WCI  21
JEROME         MOCLDY    26  22  84 W8        29.95F WCI  18
TWIN FALLS     MOCLDY    27  22  81 SW10      29.96S WCI  17
$$

IDZ019>023-201300-
SOUTHEAST IDAHO


CITY           SKY/WX    TMP DP  RH WIND       PRES   REMARKS
IDAHO FALLS    CLOUDY    28  25  88 SW7       29.93S WCI  21
POCATELLO      CLOUDY    30  24  78 SW14      29.93F WCI  19
REXBURG        CLOUDY    26  26 100 SW3       29.91R
$$

IDZ006-010-011-018-031-032-201300-
CENTRAL IDAHO MOUNTAINS


CITY           SKY/WX    TMP DP  RH WIND       PRES   REMARKS
MCCALL         CLOUDY    22  21  96 CALM      29.94S
HAILEY         PTCLDY    19  10  68 NW10      29.93S WCI   8
STANLEY          N/A     15  12  88 N3        29.93R
SALMON         CLOUDY    24  20  84 CALM      30.01R
CHALLIS        CLOUDY    24  18  77 CALM      29.96R
$$

IDZ002-004-006-007-026-201300-
NORTHERN IDAHO


CITY           SKY/WX    TMP DP  RH WIND       PRES   REMARKS
LEWISTON       CLEAR     32  31  96 CALM      30.01S FOG
LOWELL           N/A     34  31  88 CALM      30.06F
COEUR D`ALENE  CLOUDY    35  31  85 S9        29.95S WCI  28
MULLAN PASS    FLURRIES  22  20  92 VRB7      29.84S WCI  13
$$




USA.gov is the U.S. government's official web portal to all federal, state and local government web resources and services.